Theta_e
350 359 366 366 363 360 359 359 359 359 359 361 361 362 361 361 360 363 361 362 362 363 363 362 361 362 364 363 365 366 365 365 363 362 361 361 360 363 364 361 360 355 362
355 360 367 367 363 362 361 361 363 363 361 361 361 361 361 360 360 360 361 362 362 363 363 363 363 363 363 363 363 363 364 366 364 362 361 360 360 364 363 362 360 357 361
355 360 363 366 365 361 362 362 361 361 360 360 361 361 360 360 359 360 362 360 364 363 363 363 362 362 362 363 363 362 362 366 364 364 362 353 353 361 358 360 361 358 357
355 357 360 366 366 363 362 362 363 362 361 361 360 361 361 360 359 360 361 361 363 364 363 363 363 362 362 362 362 362 362 361 364 362 354 353 354 361 361 360 360 361 358
353 356 360 368 367 363 363 364 362 361 361 359 359 360 361 360 359 362 361 362 363 364 364 364 363 363 362 362 362 362 362 359 359 357 348 348 351 359 361 361 360 360 359
354 358 364 367 364 364 364 362 361 361 361 361 359 358 361 361 361 362 362 362 363 363 362 364 364 362 362 361 360 359 358 359 358 348 350 354 349 360 360 361 361 361 359
353 357 358 366 366 364 363 362 362 363 362 362 360 360 362 362 363 363 363 363 363 363 363 363 363 362 362 361 358 356 360 363 353 351 351 352 355 362 360 360 359 359 360
352 354 355 364 365 362 363 362 362 362 363 363 362 363 363 364 363 363 364 364 364 363 364 363 363 362 361 360 360 359 360 362 352 349 351 353 361 362 359 360 360 360 360
349 349 354 357 358 363 360 362 363 362 363 363 363 363 363 363 363 363 363 363 364 363 363 362 362 363 360 358 358 356 357 360 351 351 353 354 362 361 360 360 360 359 360
346 347 352 353 357 354 355 363 362 363 362 363 363 363 364 364 363 363 365 365 363 363 362 361 361 362 361 358 356 356 360 358 351 351 354 356 362 361 361 356 356 359 359
345 344 348 349 350 348 352 357 362 363 363 363 361 362 360 354 358 358 361 361 363 362 361 360 360 360 358 359 356 357 356 352 351 352 353 361 362 360 360 359 358 356 360
341 344 345 346 347 347 351 350 351 356 355 355 354 354 352 353 349 353 360 363 362 361 360 359 359 357 351 348 348 355 353 350 343 350 354 363 363 361 360 360 359 359 357
343 345 345 343 345 347 349 351 353 351 354 354 354 351 352 353 347 346 353 353 353 358 351 354 351 348 345 344 345 348 353 349 342 349 357 363 363 361 360 360 360 360 359
339 344 345 348 348 348 352 353 349 349 352 352 355 349 349 350 349 351 352 353 350 347 343 349 346 341 340 344 348 348 350 349 348 350 356 363 363 360 359 360 360 360 359
334 342 344 348 349 350 349 352 350 346 347 351 353 352 348 345 349 349 350 351 350 345 342 347 350 343 342 344 344 345 344 349 347 351 354 361 362 362 360 359 360 359 359
333 336 342 345 349 346 350 350 349 347 348 354 355 355 347 346 344 347 348 345 348 346 345 348 347 342 341 343 345 346 347 349 347 348 349 353 361 361 361 359 359 359 359
331 333 335 341 349 349 348 348 351 348 348 353 355 354 352 347 347 350 348 343 350 350 350 350 348 346 346 346 346 347 345 346 348 348 347 345 352 358 358 360 360 361 359
338 340 334 346 344 344 348 348 351 352 354 354 355 357 353 352 351 347 344 346 350 349 351 350 346 345 343 345 345 344 349 350 349 348 347 346 347 349 357 361 360 362 360
340 341 339 342 341 342 348 348 348 349 353 353 353 357 354 356 352 348 346 345 346 346 345 346 346 345 345 343 345 347 346 348 350 347 346 347 344 343 345 356 359 361 359
338 341 340 344 346 347 347 345 347 350 356 355 355 356 353 354 354 350 348 347 345 345 343 347 345 345 347 345 351 345 345 347 346 345 344 344 345 343 342 343 351 354 360
337 338 337 340 345 348 347 345 347 347 349 351 356 355 354 352 355 351 350 347 344 343 345 347 348 344 342 344 344 342 345 346 344 344 345 343 344 344 345 344 349 348 354
337 337 335 339 348 347 348 346 349 345 346 352 355 358 355 355 355 354 351 348 345 347 345 345 345 342 344 344 338 336 332 336 341 346 344 345 343 344 344 345 346 345 349
337 337 336 335 344 344 346 347 347 350 350 349 351 354 356 355 356 356 354 353 348 350 346 345 347 344 341 344 344 340 330 327 334 342 344 345 345 343 344 344 345 344 348
337 337 336 335 343 348 347 347 346 345 344 346 348 352 354 354 354 357 355 354 352 353 348 346 348 347 345 341 343 346 344 339 331 330 339 343 343 344 345 345 345 345 345
338 336 337 339 344 346 351 347 350 347 349 348 348 349 356 356 357 357 357 352 352 351 349 347 346 346 346 344 341 342 342 340 338 333 331 334 342 344 345 346 346 346 349
338 336 337 343 342 345 348 350 350 350 348 349 347 342 340 351 349 346 344 354 354 351 350 351 349 346 346 347 345 342 341 338 336 335 332 334 334 338 341 345 345 346 349
Wind_Speed
5 8 13 13 13 11 12 12 12 12 11 11 11 11 12 13 12 11 11 11 12 14 15 16 17 17 19 19 19 20 21 21 19 20 19 17 16 17 21 20 20 16 21
12 10 15 15 14 12 11 11 11 11 9 9 9 9 10 11 11 11 11 11 12 13 14 15 16 17 17 17 18 18 19 18 19 19 19 19 20 20 21 20 21 16 20
13 12 13 16 15 14 12 11 11 9 8 8 8 8 8 10 11 11 10 10 13 14 14 13 14 15 15 16 16 16 16 15 19 19 18 9 11 20 20 18 20 20 19
15 11 11 16 15 14 12 10 9 8 7 7 6 8 8 9 10 12 11 12 14 15 15 15 13 14 12 13 14 14 14 13 14 14 9 7 12 19 18 18 18 18 19
15 12 12 16 15 14 12 11 8 7 7 6 5 8 9 9 11 12 13 13 14 15 14 14 14 13 11 12 11 11 12 11 9 8 8 7 6 14 17 17 17 18 18
16 12 13 15 15 15 13 10 8 8 8 8 7 8 11 11 12 13 14 14 13 14 14 14 13 12 11 9 9 8 7 7 5 7 9 11 6 14 16 16 17 17 16
16 12 12 15 14 14 13 10 9 9 9 11 14 16 15 13 13 14 14 15 13 14 13 13 13 10 10 9 7 4 4 9 9 8 9 8 6 14 16 16 16 16 17
18 14 12 15 14 15 13 11 10 10 11 12 15 16 14 13 13 14 14 14 14 13 13 12 12 10 8 7 6 6 8 10 12 9 8 6 10 13 14 15 16 16 16
18 14 10 9 11 15 14 11 10 11 11 12 14 13 13 12 12 12 13 13 14 13 11 10 11 9 6 5 5 4 6 13 9 7 9 4 12 14 15 14 15 15 15
17 14 12 7 8 5 7 11 10 10 11 11 11 10 12 11 11 12 8 11 12 12 10 9 9 8 6 4 4 5 6 8 6 7 5 5 12 15 15 14 14 14 15
14 15 13 9 8 7 7 7 10 10 11 11 8 8 6 3 4 7 9 10 11 11 8 7 7 7 5 6 5 5 6 3 6 5 3 10 13 16 15 15 15 15 15
17 16 12 12 10 9 7 6 5 5 3 4 5 7 5 3 2 4 6 9 9 9 8 6 8 5 5 3 5 6 2 2 3 5 4 10 12 15 14 13 14 15 15
15 11 12 9 8 8 7 5 3 3 3 3 7 7 6 4 1 2 1 2 2 6 3 3 4 1 2 4 5 3 2 5 2 3 7 13 13 15 14 14 14 13 14
11 12 11 9 6 6 5 4 5 4 4 4 5 6 4 3 4 3 1 3 2 3 3 0 2 2 6 6 6 6 8 2 2 3 4 9 10 13 14 13 13 13 13
9 7 6 6 6 4 6 4 4 4 4 5 5 8 7 7 7 3 4 4 4 3 3 2 3 4 2 6 4 8 9 6 5 4 4 12 9 11 14 14 13 14 12
6 12 7 7 6 6 5 5 4 3 4 5 4 6 7 5 7 7 5 3 3 5 3 4 4 9 5 4 9 11 10 7 5 7 5 7 12 12 12 14 14 14 14
5 9 10 9 8 7 5 3 2 1 2 4 5 8 9 7 10 10 5 4 4 3 6 6 10 8 8 8 9 8 4 5 5 8 7 5 6 13 12 13 13 13 14
6 3 9 11 8 7 6 3 1 1 2 4 4 5 7 8 8 6 4 4 2 0 2 3 3 3 5 7 7 5 3 3 5 6 6 6 5 4 9 12 11 12 14
7 4 5 7 8 8 6 4 3 4 2 3 4 6 7 6 5 6 5 4 3 1 2 1 2 1 2 3 5 6 6 2 4 5 7 6 7 5 4 9 10 12 15
7 6 3 2 7 7 4 3 2 3 4 4 4 6 10 6 8 5 4 4 4 3 1 2 3 2 2 2 3 6 7 6 4 4 5 6 6 8 7 7 5 7 14
8 6 5 5 3 6 3 3 2 4 3 2 4 8 7 7 8 6 3 4 3 3 2 2 2 1 1 2 2 2 3 5 6 4 4 4 8 7 8 7 6 4 6
10 10 6 4 5 5 4 2 3 3 4 3 3 7 7 7 7 7 5 4 4 2 3 3 3 1 2 3 3 2 0 2 3 6 5 6 7 6 6 7 8 8 7
11 10 8 8 8 6 7 3 3 1 2 2 1 3 7 7 9 8 8 6 5 4 4 4 5 6 3 3 8 4 1 4 2 3 7 6 9 6 5 7 7 7 10
14 10 10 8 8 7 8 4 6 4 4 4 4 3 4 10 9 8 9 9 7 5 6 6 4 3 3 4 2 4 2 3 2 2 1 5 6 10 10 6 8 7 7
16 14 13 13 11 8 8 9 5 5 4 4 3 1 2 9 11 8 7 7 7 6 5 6 5 5 3 1 3 2 2 2 2 2 2 3 3 4 9 9 8 7 9
16 16 15 15 14 13 11 10 8 8 6 4 3 1 2 6 10 8 12 6 6 6 6 7 6 6 5 4 4 3 3 3 4 3 3 4 4 2 2 5 8 9 9
Wind_Direction
138 137 135 131 128 129 119 114 107 99 98 97 96 96 89 86 80 88 97 101 107 102 102 100 100 99 98 100 102 106 104 103 106 108 105 99 103 109 96 95 94 89 92
129 133 134 132 129 124 118 112 103 102 103 105 103 100 99 97 92 97 105 104 115 107 102 104 102 104 106 105 104 103 107 111 111 109 104 98 95 95 94 91 94 90 89
122 131 128 126 125 120 115 111 104 107 113 112 115 120 113 109 102 104 112 111 113 114 106 103 105 104 107 107 107 110 117 120 124 116 106 103 102 97 99 100 99 99 96
130 123 126 124 122 119 115 110 106 100 100 119 129 129 123 117 109 111 110 115 120 116 113 111 111 112 110 111 114 116 120 130 141 100 116 104 102 106 107 106 104 103 102
125 121 129 125 123 119 109 97 99 97 99 103 120 120 130 121 110 105 114 116 119 120 123 120 116 118 120 120 123 130 132 144 158 94 104 95 94 111 112 113 115 106 102
119 125 123 119 122 115 104 108 95 97 93 88 86 130 130 129 118 112 114 120 123 121 121 120 116 126 125 126 132 142 134 148 125 102 108 105 101 121 120 115 112 112 110
125 130 125 125 122 117 109 97 94 96 96 88 87 118 128 127 122 117 121 125 123 124 119 121 127 131 133 136 128 119 98 133 110 107 98 104 103 113 118 118 117 118 110
134 132 128 123 123 119 111 105 106 101 97 91 100 113 122 122 125 127 126 127 127 132 129 127 127 136 136 137 111 99 60 109 102 104 108 110 122 119 119 123 123 123 119
131 128 126 121 125 130 119 115 108 111 110 111 109 114 119 122 127 132 132 128 128 132 133 135 137 139 138 141 136 83 72 108 101 110 115 109 131 126 126 126 127 126 124
131 135 125 127 127 126 127 131 126 121 122 115 116 124 130 135 135 127 124 126 126 130 136 142 137 142 149 149 145 112 104 99 102 105 110 128 130 131 131 130 129 130 130
140 139 137 150 150 162 141 153 140 138 132 126 124 138 112 51 103 122 140 139 135 125 125 122 136 135 98 52 40 87 92 89 99 106 114 144 140 136 138 140 136 139 133
147 140 145 162 163 161 155 144 158 149 155 147 157 97 54 7 186 110 141 138 139 141 135 123 117 97 101 97 42 6 104 51 101 129 136 146 144 141 143 144 142 141 139
140 127 162 157 152 157 138 177 155 139 169 177 139 126 164 177 353 7 127 117 152 158 53 69 101 135 179 79 61 307 313 128 248 148 156 155 158 143 143 148 144 143 141
117 117 132 129 136 146 143 174 169 148 161 174 164 143 121 125 76 314 230 150 162 103 110 181 151 165 32 52 62 352 321 257 208 124 153 152 156 146 148 152 146 145 143
125 133 155 135 152 157 129 161 179 177 158 172 159 141 132 124 112 227 253 192 150 141 150 203 143 114 226 128 118 273 278 260 188 140 154 159 165 158 155 155 156 151 145
155 145 157 140 164 159 119 121 151 209 174 154 157 129 139 148 143 192 224 209 185 166 170 274 180 175 184 161 180 222 248 226 178 156 157 159 173 175 171 167 162 158 154
191 164 168 153 154 145 144 112 40 284 85 141 160 134 154 150 164 189 191 209 205 199 163 212 147 151 154 187 209 215 225 284 166 169 162 161 168 183 180 178 171 167 169
155 125 179 157 153 157 153 163 261 320 64 143 148 141 138 158 179 170 176 200 199 9 26 24 52 101 156 187 194 175 147 280 191 155 164 174 164 177 189 182 185 183 181
153 167 113 140 166 167 161 167 239 271 278 186 157 130 151 130 182 178 194 195 191 142 169 166 78 108 200 271 189 159 173 174 157 154 171 191 167 177 184 201 190 186 191
162 162 183 43 132 146 143 150 280 268 247 201 162 142 151 172 175 195 184 190 194 170 303 347 96 32 112 288 326 140 171 191 192 189 178 180 183 187 188 188 187 198 196
164 171 201 161 150 132 135 152 230 246 234 243 168 166 156 185 172 169 185 174 210 200 186 173 67 260 150 45 4 349 167 184 181 208 207 192 185 200 192 179 183 187 206
175 193 161 175 166 163 158 194 195 209 233 203 189 180 169 164 170 164 173 197 191 228 182 201 170 249 147 202 205 118 87 349 243 215 189 209 204 187 194 178 189 187 185
184 198 171 184 202 195 193 186 219 240 302 332 229 171 178 183 179 167 180 196 177 188 212 200 194 192 210 221 203 171 123 213 180 205 205 204 206 194 196 194 192 199 185
185 184 178 192 197 195 200 197 201 202 208 221 221 179 165 174 173 174 181 186 177 193 201 203 192 202 169 202 211 222 201 151 145 319 7 198 190 191 197 207 201 186 189
182 185 182 192 194 199 197 203 205 207 217 231 220 12 258 190 172 165 178 197 183 187 202 188 195 212 188 237 198 174 152 175 103 168 213 287 135 208 206 201 199 181 190
186 186 187 182 197 201 204 209 196 211 233 228 123 120 205 46 20 328 297 250 198 191 201 203 198 201 213 223 236 202 178 173 178 206 204 188 197 231 191 193 192 201 202